Location: Coll
(42.4728°N, 0.7714°E)
Time: 06:28:19
(UTC+00:00)

SJ-12 - Pass Details

Date: 23 October 2020
Orbit: 568 x 585 km, 97.7° (Epoch: 23 November)

Event Time Altitude Azimuth Distance (km) Brightness Sun altitude
Rises 05:04:11 0° 12° (NNE) 2,814 7.6 -14.6°
Reaches altitude 10° 05:06:21 10° 13° (NNE) 1,907 6.7 -14.2°
Maximum altitude 05:10:30 89° 99° (E) 586 3.9 -13.4°
Drops below altitude 10° 05:14:35 10° 193° (SSW) 1,882 6.4 -12.7°
Sets 05:16:43 0° 194° (SSW) 2,773 7.3 -12.3°
